Flag for Italy Weather past 2 weeks in Bologna, Italy

Now
82 °F

Passing clouds.


Feels Like: 84 °F
Forecast: 67 / 86 °F
Wind: 9 mph from East

Location: Bologna / Borgo Panigale

Current Time: Aug 1, 2014 at 12:44:53 PM

Latest Report: Aug 1, 2014 at 11:50 AM


Visibility: N/A

Pressure: 29.83 "Hg

Humidity: 55%

Dew point: 64 °F

Location of BolognaLocation

Historic Weather in Bologna — Graph

°F

Bologna temperature yesterday

Maximum temperature yesterday: 82 °F (at 12:50 PM)
Minimum temperature yesterday: 66 °F (at 12:50 AM)
Average temperature yesterday: 74 °F

Past Weeks' High & Low Weather Summary

 TemperatureHumidityPressure
High93 °F (Jul 19, 2:50 PM)100% (Jul 25, 3:20 AM)30.09 "Hg (Jul 25, 3:20 AM)
Low61 °F (Jul 21, 7:50 PM)26% (Jul 17, 6:20 PM)29.62 "Hg (Jul 30, 4:20 AM)
Average75 °F70%29.86 "Hg
* Reported Jul 17 11:20 AM — Aug 1 11:50 AM, Bologna, Weather by CustomWeather, © 2014

Note: Actual official high and low records may vary slightly from our data, if they occured in-between our weather recording intervals... More about our weather records

Advertising

Bologna weather history for previous 24 hours

 ConditionsComfort  
Time TempWeatherWind HumidityBarometerVisibility
11:50 AM
Aug 1
82 °FPassing clouds.9 mph55%29.83 "HgN/A
11:20 AM82 °FPassing clouds.9 mph51%29.83 "HgN/A
10:50 AM81 °FPassing clouds.8 mph62%29.83 "HgN/A
10:20 AM79 °FPassing clouds.8 mph70%29.83 "HgN/A
9:50 AM79 °FPassing clouds.5 mph65%29.83 "HgN/A
9:20 AM77 °FPassing clouds.3 mph65%29.83 "HgN/A
8:50 AM75 °FPassing clouds.3 mph74%29.83 "HgN/A
8:20 AM73 °FSunny.2 mph78%29.83 "Hg10 mi
7:50 AM73 °FSunny.1 mph78%29.83 "Hg10 mi
7:20 AM68 °FSunny.5 mph94%29.83 "Hg10 mi
6:50 AM66 °FClear.2 mph94%29.83 "Hg10 mi
6:20 AM64 °FClear.6 mph100%29.83 "Hg10 mi
5:50 AM66 °FClear.1 mph94%29.83 "Hg10 mi
5:20 AM68 °FClear.7 mph88%29.83 "Hg10 mi
4:50 AM66 °FPassing clouds.3 mph94%29.83 "HgN/A
4:20 AM66 °FClear.No wind94%29.83 "Hg10 mi
3:50 AM66 °FClear.3 mph100%29.83 "Hg10 mi
3:20 AM66 °FClear.3 mph94%29.83 "Hg10 mi
2:50 AM68 °FPassing clouds.3 mph94%29.83 "HgN/A
2:20 AM66 °FClear.2 mph94%29.83 "Hg10 mi
1:50 AM70 °FPassing clouds.3 mph88%29.83 "HgN/A
1:20 AM68 °FClear.3 mph88%29.83 "Hg10 mi
12:50 AM70 °FClear.5 mph88%29.83 "Hg10 mi
12:20 AM70 °FClear.5 mph83%29.83 "Hg10 mi
11:50 PM
Jul 31
68 °FClear.5 mph88%29.83 "Hg10 mi
11:20 PM72 °FClear.7 mph78%29.83 "Hg10 mi
10:50 PM72 °FClear.7 mph78%29.83 "Hg10 mi
10:20 PM72 °FClear.8 mph78%29.83 "Hg10 mi
9:50 PM73 °FClear.6 mph74%29.80 "Hg10 mi
9:20 PM75 °FSunny.7 mph69%29.80 "Hg10 mi
8:50 PM75 °FSunny.6 mph74%29.80 "Hg10 mi
8:20 PM77 °FSunny.8 mph69%29.80 "Hg10 mi
7:50 PM81 °FSunny.7 mph62%29.80 "Hg10 mi
7:20 PM81 °FSunny.8 mph62%29.80 "Hg10 mi
6:50 PM81 °FSunny.10 mph62%29.80 "Hg10 mi
6:20 PM82 °FPassing clouds.10 mph58%29.80 "HgN/A
5:50 PM81 °FSunny.12 mph62%29.80 "Hg10 mi
5:20 PM82 °FPassing clouds.10 mph58%29.80 "HgN/A
4:50 PM82 °FPassing clouds.10 mph58%29.80 "HgN/A
4:20 PM82 °FSunny.10 mph55%29.80 "Hg10 mi
3:50 PM82 °FPassing clouds.10 mph55%29.80 "HgN/A
3:20 PM81 °FSunny.8 mph58%29.80 "Hg10 mi
2:50 PM81 °FSunny.8 mph58%29.80 "Hg10 mi
2:20 PM81 °FPassing clouds.8 mph54%29.80 "HgN/A
1:50 PM82 °FPassing clouds.8 mph51%29.80 "HgN/A
1:20 PM82 °FPassing clouds.7 mph48%29.83 "HgN/A
12:50 PM82 °FSunny.3 mph51%29.83 "Hg10 mi
12:20 PM79 °FPassing clouds.5 mph61%29.83 "HgN/A
Weather by CustomWeather, © 2014

See weather overviewHow to use our weather pages